Regional Weather Roundup
Issued by NWS Sterling, VA

Home | Current Version | Previous Version | Graphics & Text | Print | Product List | Glossary On
Versions: 1 2 3 4 5 6 7 8 9 10 11 12 13 14 15 16 17 18 19 20 21 22 23 24 25 26 27
000
ASUS41 KLWX 301310
RWRLWX

REGIONAL WEATHER ROUNDUP
NATIONAL WEATHER SERVICE BALTIMORE MD/WASHINGTON DC
900 AM EDT SAT JUL 30 2016

Note: "FAIR" indicates few or no clouds below 12,000 feet
with no significant weather and/or obstructions to visibility.
 TC=TEMPERATURE CELSIUS

 * =Non NWS site. Station does not report precipitation (e.g. rain,
    snow, etc.), thunder, or fog.

DCZ001-MDZ009-015-VAZ040>042-051-053>054-301400-
WASHINGTON METRO

CITY           SKY/WX    TMP DP  RH WIND       PRES   REMARKS
WASHINGTON NAT PTSUNNY   81  74  79 S8        29.98S
DULLES         PTSUNNY   79  72  79 S6        29.98S
ANDREWS AFB    CLOUDY    79  73  81 S6        29.98S
FT BELVOIR     FAIR      79  73  82 S5        29.98S
LEESBURG*      PTSUNNY   79  77  94 S8        29.99S
MANASSAS*      PTSUNNY   77  75  94 S5        29.98S
GAITHERSBURG*  CLOUDY    79  72  78 SE6       30.03S

$$

MDZ006>007-011-014-301400-
BALTIMORE METRO

CITY           SKY/WX    TMP DP  RH WIND       PRES   REMARKS
BWI AIRPORT    CLOUDY    78  74  87 CALM      29.98S
MD SCIENCE CTR   N/A     79  72  79 MISG      29.99R
MARTIN STATE   PTSUNNY   81  79  94 CALM      29.99S
ANNAPOLIS      CLOUDY   N/A N/A N/A CALM      29.98R
FORT MEADE*    CLOUDY    73  72  94 CALM      30.01S

$$

MDZ012-015-019>023-301400-
MARYLAND EASTERN SHORE

CITY           SKY/WX    TMP DP  RH WIND       PRES   REMARKS
OCEAN CITY     SUNNY     81  75  82 S3        30.01R
SALISBURY      NOT AVBL
BAY BRIDGE AP* LGT RAIN  82  79  89 SE6       29.98S HX  93
CAMBRIDGE*     CLOUDY    79  73  83 S3        29.99S
EASTON*        SUNNY     82  81  94 S8        30.03S HX  95

$$

MDZ017>025-301400-
SOUTHERN MARYLAND

CITY           SKY/WX    TMP DP  RH WIND       PRES   REMARKS
PATUXENT RIVER PTSUNNY   83  71  67 S5        29.99R
ST INIGOES     MOSUNNY   83  76  79 S6        29.99R HX  91
LEONARDTOWN*     N/A     79  72  78 MISG        N/A

$$

MDZ003>005-301400-
NORTH CENTRAL MARYLAND

CITY           SKY/WX    TMP DP  RH WIND       PRES   REMARKS
FREDERICK*     SUNNY     73  73 100 CALM      30.01S
HAGERSTOWN APT CLOUDY    77  70  79 W3        29.98S

$$

MDZ501>502-301400-
WESTERN MARYLAND

CITY           SKY/WX    TMP DP  RH WIND       PRES   REMARKS
OAKLAND*       CLOUDY    68  64  88 S7        30.07S
CUMBERLAND*    CLOUDY    72  72 100 CALM      30.03S

$$

VAZ025>031-301400-
SHENANDOAH VALLEY

CITY           SKY/WX    TMP DP  RH WIND       PRES   REMARKS
WINCHESTER*    CLOUDY    77  70  78 E3        29.99R
FRONT ROYAL*   FAIR      77  70  78 CALM      29.97S
LURAY*         NOT AVBL
NEW MARKET*    FAIR      76  70  80 SW3       29.98S
STAUNTON*      FAIR      76  71  82 S3        30.03S
WAYNESBORO*    PTSUNNY   77  70  78 CALM      30.03S

$$

WVZ021-048>050-054>055-301400-
EASTERN WEST VIRGINIA PANHANDLE

CITY           SKY/WX    TMP DP  RH WIND       PRES   REMARKS
MARTINSBURG    RAIN      73  70  90 CALM      29.98S FOG
PETERSBURG*    FAIR      75  70  86 CALM      29.99S

$$

VAZ036>039-050-301400-
CENTRAL FOOTHILLS

CITY           SKY/WX    TMP DP  RH WIND       PRES   REMARKS
CHARLOTTESVILL CLOUDY    77  73  87 S5        29.99S
CULPEPER*      DRIZZLE   76  75  96 CALM      29.99S
ORANGE*          N/A     75  75 100 CALM      30.01S
GORDONSVILLE*  CLOUDY    75  74  95 SW3       29.99R
WARRENTON*     FAIR      78  70  76 CALM      29.98S

$$

VAZ055>057-301400-
NORTH AND CENTRAL PIEDMONT

CITY           SKY/WX    TMP DP  RH WIND       PRES   REMARKS
FREDERICKSBRG* FAIR      78  78 100 CALM      29.98S
STAFFORD*      PTSUNNY   76  73  89 CALM      30.03S

$$

NCZ024-NYZ072-PAZ021-071-VAZ022-071-301400-
OTHER REGIONAL OBSERVATIONS

CITY           SKY/WX    TMP DP  RH WIND       PRES   REMARKS
NEW YORK CITY  CLOUDY    78  70  76 NE5       30.04R HAZE
PHILADELPHIA   PTSUNNY   79  73  82 S6        30.00S
PITTSBURGH     LGT RAIN  70  67  90 S3        29.97S FOG
ROANOKE        FAIR      75  71  87 NW3       30.05R
RICHMOND       PTSUNNY   78  74  87 S6        29.99S
RALEIGH        CLOUDY    80  73  79 S6        29.99R

$$

ANZ530>537-301400-
MARINE OBSERVATIONS

STATION/POSITION TIME  TEMP    WIND        PRES
                       AIR SEA DIR/SP/G
                 (UTC) (F)     (DEG/KT/KT) (MB)
THOMAS PT LIGHT  1300   82 84  180/ 11/ 12 1016.5S
BALT KEY BRIDGE  1242   78     180/  4/  5 1015.1R
COVE POINT       1242   82     180/  9/ 10 1016.0R
LEWISETTA        1242   81 85  200/  5/  5 1015.2R
SOLOMONS ISLAND  1242   83 85  170/  7/  8   N/A
PINEY POINT      1242          210/  7/  8   N/A

$$





USA.gov is the U.S. government's official web portal to all federal, state and local government web resources and services.